Location: Newark
(13.8117°N, 3.6025°W)
Time: 04:41:46
(UTC+00:00)

Vanguard 2 - Pass Details

Date: 25 August 2019
Orbit: 554 x 2937 km, 32.9° (Epoch: 15 September)

Event Time Altitude Azimuth Distance (km) Brightness Sun altitude
Rises 08:02:04 0° 210° (SSW) 2,994 10.3 27.9°
Reaches altitude 10° 08:05:10 10° 190° (S) 1,909 9.5 28.7°
Maximum altitude 08:08:01 18° 146° (SE) 1,394 9.4 29.4°
Drops below altitude 10° 08:10:47 10° 101° (E) 1,826 10.9 30.0°
Sets 08:13:38 0° 81° (E) 2,807 11.6 30.7°
